Location: Mercogliano
(40.9167°N, 14.7333°E)
Time: 14:12:21
(UTC+00:00)

USA 186 - Pass Details

Date: 18 September 2020
Orbit: 261 x 425 km, 96.9° (Epoch: 12 October)

Event Time Altitude Azimuth Distance (km) Brightness Sun altitude
Exits shadow 18:49:23 55° 216° (SW) 482 2.0 -20.2°
Maximum altitude 18:49:48 64° 260° (W) 447 2.0 -20.3°
Drops below altitude 10° 18:52:58 10° 343° (NNW) 1,488 5.0 -20.8°
Sets 18:55:02 0° 346° (NNW) 2,375 6.1 -21.2°
